Simultaneous Nadir Overpasses (SNOs) Predictions

Prediction of SNOs between NOAA-19 and NPP Satellite Orbit:

Table of predicted SNOs for the next 14.0 days since TLE Epoch: 3/21/2014
Index Date (NOAA-19) Time (NOAA-19) Lat,Lon (NOAA-19) SZA (NOAA-19 ) Date (NPP) Time (NPP) Lat,Lon (NPP) SZA (NPP ) Distance(km) Time Diff (sec)
1 03/31/2014 03:17:24 -81.00,-103.43 99.22 03/31/2014 03:18:23 -81.00,-103.33 99.26 1.68 59
2 03/31/2014 04:08:19 80.99, 64.45 80.69 03/31/2014 04:09:07 80.99, 64.37 80.67 1.42 48
3 03/31/2014 04:59:26 -80.99,-128.27 99.34 03/31/2014 04:59:52 -80.99,-128.31 99.35 0.70 26
4 03/31/2014 05:50:23 80.99, 38.86 80.67 03/31/2014 05:50:37 80.99, 39.02 80.64 2.76 14
5 03/31/2014 06:41:28 -80.97,-153.12 99.46 03/31/2014 06:41:21 -80.97,-153.29 99.44 3.07 7
6 03/31/2014
